Location: Waco, TX
(31.5480°N, 97.1670°W)
Time: 17:10:04
(UTC-06:00)

ISS - Pass Details

Date: 12 January 2018
Orbit: 401 x 406 km, 51.6° (Epoch: 17 January)

Event Time Altitude Azimuth Distance (km) Brightness Sun altitude
Rises 08:44:15 0° 300° (WNW) 2,321 -0.6 13.0°
Reaches altitude 10° 08:46:36 10° 285° (WNW) 1,459 -1.5 13.4°
Maximum altitude 08:49:14 22° 232° (SW) 930 -2.1 13.9°
Drops below altitude 10° 08:51:50 10° 178° (S) 1,453 -0.4 14.3°
Sets 08:54:11 0° 163° (SSE) 2,309 1.0 14.7°
